[[{"header":{"parameterUnit":"m.s-1","parameterCategory":1,"la1":30.2992,"la2":30.254,"lo1":-89.0895,"lo2":-89.0443,"dy":0.0025,"dx":0.0025,"nx":19,"ny":19,"refTime":"2026-03-07T09:00:00:Z","depth":0,"parameterNumber":2,"parameterNumberName":"U-component_of_WINDS"},"data":[0,0,0,-0.0024,-0.0025,-0.0054,-0.0054,-0.0086,-0.0086,0,0,0,0,0,0,0,0,0,0,0,-0.0012,-0.0012,-0.0024,-0.0025,-0.0054,-0.0054,-0.0086,-0.0086,0,0,0,0,0,0,0,0,0,0,0,-0.0012,-0.0012,-0.0012,-0.0025,-0.0054,-0.0054,-0.0085,-0.0066,0,0,0,0,0,0,0,0,0,0,-0.0038,-0.0024,-0.0012,-0.0012,-0.0025,-0.0054,-0.0054,-0.0065,-0.0067,-0.007,0,-0.0072,0,-0.0079,-0.0088,-0.0088,0,0,0,-0.0027,-0.0022,-0.0033,-0.0012,-0.0025,-0.0053,-0.0041,-0.0066,-0.0068,-0.0073,-0.0072,-0.0074,-0.008,-0.0088,-0.0088,-0.0097,-0.0097,0,0,-0.0026,-0.0016,-0.0031,-0.0034,-0.0029,-0.004,-0.0042,-0.0067,-0.0066,-0.0073,-0.0075,-0.008,-0.0088,-0.0088,-0.0097,-0.0097,0,0,0,-0.0019,-0.0014,-0.0025,-0.0033,-0.0038,-0.0041,-0.0043,-0.0065,-0.007,-0.0075,-0.0081,-0.0088,-0.0088,-0.0097,-0.0097,-0.0082,0,0,0,-0.0018,-0.0011,-0.0024,-0.0018,-0.0038,-0.0052,-0.004,-0.0068,-0.0071,-0.0081,-0.0088,-0.0089,-0.0097,-0.0097,-0.0082,-0.0076,0,0,0,-0.0011,-0.001,-0.0013,-0.0017,-0.0029,-0.0052,-0.0058,-0.0069,-0.0074,-0.0088,-0.0089,-0.0097,-0.0097,-0.0083,-0.0077,-0.0075,0,0,0,-0.0001,0.0,-0.0012,-0.0014,-0.0029,-0.0043,-0.0058,-0.0069,-0.0078,-0.0088,-0.0097,-0.0097,-0.0083,-0.0078,-0.0075,-0.007,-0.0067,0,0,0.0006,0.0001,-0.0,-0.0012,-0.0021,-0.0039,-0.0046,-0.0065,-0.0076,-0.0089,-0.009,-0.0082,-0.0077,-0.0075,-0.0056,-0.0054,0,0,0,0.0005,0.0005,0.0,-0.0008,-0.0022,-0.0034,-0.0053,-0.006,-0.0071,-0.008,-0.0082,-0.0079,-0.0078,-0.0076,-0.0074,-0.0073,-0.0096,-0.0096,-0.0096,0.003,0.0017,0.0014,-0.0003,-0.0011,-0.003,-0.0038,-0.005,-0.0063,-0.0062,-0.0066,-0.0053,-0.005,-0.0049,-0.0048,-0.0065,-0.0065,-0.0065,-0.0065,0.004,0.0037,0.0022,0.0014,-0.0,-0.0008,-0.0026,-0.0034,-0.0043,-0.0052,-0.0052,-0.0059,-0.0046,-0.0046,-0.0064,-0.0065,-0.0065,-0.0065,-0.0065,0.0055,0.0052,0.0044,0.0031,0.0022,0.0005,-0.0002,-0.0016,-0.0028,-0.0028,-0.0033,-0.0033,-0.0034,-0.003,-0.0029,-0.0029,-0.0029,-0.0029,-0.0029,0.0075,0.0065,0.0061,0.0047,0.004,0.003,0.0011,0.0004,-0.0007,-0.0016,-0.0016,-0.0027,-0.0042,-0.0045,-0.0029,-0.0029,-0.0029,-0.0029,-0.0029,0.0092,0.0086,0.008,0.0073,0.0056,0.0049,0.0032,0.0019,0.0011,0.0008,-0.0003,-0.0013,-0.0018,-0.002,-0.0023,-0.0001,-0.0001,-0.0001,-0.0001,0.0105,0.0101,0.0092,0.0083,0.0072,0.0056,0.005,0.0036,0.0019,0.0014,0.0009,0.0004,0.0003,-0.0002,-0.0004,-0.0007,0.0018,0.0018,0.0018,0.0115,0.011,0.0107,0.0092,0.0077,0.0065,0.0059,0.0049,0.0029,0.0019,0.001,0.0009,0.0001,-0.0001,-0.0011,-0.0014,-0.0018,0,0]},{"header":{"parameterUnit":"m.s-1","parameterCategory":1,"la1":30.2992,"la2":30.254,"lo1":-89.0895,"lo2":-89.0443,"dy":0.0025,"dx":0.0025,"nx":19,"ny":19,"refTime":"2026-03-07T09:00:00:Z","depth":0,"parameterNumber":3,"parameterNumberName":"V-component_of_WINDS"},"data":[0,0,0,2.5627,2.563,2.5795,2.5795,2.6,2.6002,0,0,0,0,0,0,0,0,0,0,0,2.5575,2.5576,2.5627,2.5631,2.5795,2.5795,2.6,2.6002,0,0,0,0,0,0,0,0,0,0,0,2.5574,2.5576,2.5577,2.5631,2.5795,2.5796,2.5999,2.5877,0,0,0,0,0,0,0,0,0,0,2.5719,2.5667,2.5575,2.5577,2.5632,2.5794,2.5796,2.5871,2.5885,2.5923,0,2.5956,0,2.5982,2.6015,2.6016,0,0,0,2.5633,2.5656,2.5703,2.5577,2.5634,2.5794,2.5721,2.5879,2.5894,2.5941,2.5959,2.5967,2.5986,2.6016,2.6017,2.6231,2.6232,0,0,2.5624,2.5602,2.5693,2.5713,2.5687,2.5716,2.5726,2.5888,2.5907,2.596,2.5972,2.5989,2.6018,2.6019,2.623,2.6231,0,0,0,2.5596,2.5596,2.564,2.5704,2.5734,2.5721,2.5733,2.59,2.5916,2.5974,2.5991,2.6019,2.6021,2.6229,2.623,2.6254,0,0,0,2.5591,2.558,2.5635,2.5624,2.5731,2.5819,2.574,2.5904,2.5923,2.599,2.6019,2.6023,2.6228,2.623,2.6252,2.627,0,0,0,2.5565,2.5577,2.5599,2.5622,2.5692,2.5817,2.5842,2.5909,2.5934,2.6016,2.6024,2.6227,2.6229,2.6249,2.6266,2.6321,0,0,0,2.5531,2.5617,2.5599,2.5702,2.5691,2.583,2.5842,2.5946,2.6019,2.602,2.6228,2.623,2.6248,2.6263,2.6319,2.6366,2.6383,0,0,2.5627,2.5628,2.569,2.5679,2.5816,2.5807,2.5948,2.6034,2.6061,2.6173,2.6178,2.6252,2.6266,2.6321,2.6482,2.6495,0,0,0,2.5713,2.5758,2.5799,2.5868,2.5936,2.5997,2.6065,2.6097,2.6193,2.6114,2.6287,2.6295,2.6329,2.6352,2.6364,2.6395,2.6239,2.6239,2.6239,2.5819,2.585,2.5955,2.6006,2.6073,2.6142,2.6199,2.6255,2.6265,2.6306,2.634,2.6434,2.646,2.6469,2.6501,2.6365,2.6365,2.6365,2.6365,2.5964,2.6033,2.6046,2.6154,2.6186,2.6276,2.6346,2.6351,2.644,2.641,2.6441,2.6408,2.6483,2.6512,2.6367,2.6367,2.6367,2.6367,2.6366,2.6039,2.6078,2.6116,2.622,2.6296,2.6344,2.643,2.6455,2.648,2.651,2.655,2.655,2.6555,2.6527,2.6527,2.6527,2.6528,2.6528,2.6528,2.6103,2.6145,2.6214,2.6295,2.6343,2.641,2.6481,2.6529,2.659,2.6601,2.6602,2.661,2.6483,2.6452,2.6533,2.6532,2.6532,2.6531,2.6531,2.6243,2.6215,2.6322,2.6371,2.6469,2.6544,2.6575,2.6672,2.6715,2.6757,2.6758,2.666,2.6662,2.6653,2.6628,2.6749,2.6749,2.6749,2.675,2.6308,2.6311,2.6427,2.6504,2.6581,2.662,2.6742,2.6797,2.6851,2.688,2.6865,2.6833,2.6823,2.6832,2.6819,2.6796,2.6958,2.6958,2.6958,2.6397,2.6409,2.6508,2.656,2.6638,2.6705,2.6821,2.6908,2.6962,2.6967,2.6904,2.6895,2.6843,2.6824,2.6829,2.6809,2.6767,0,0]}]]